Lincoln Laboratory Near-Earth Asteroid Research project
軌道要素
Epoch 2000 Feb. 26.0 TT = JDT 2451600.5
T 2000 Mar. 9.81037 TT MPC
q 1.0028965 (2000.0) P Q
n 0.18404997 Peri. 343.28806 -0.99419229 -0.10195183
a 3.0608747 Node 191.03289 +0.10715442 -0.96748257
e 0.6723497 Incl. 10.37376 -0.00998057 -0.23148068
P 5.36
From 146 observations 2000 Apr. 7-2011 June 10, mean residual 0".71.